Location: Rochester
(43.1610°N, 77.6109°W)
Time: 00:37:34
(UTC-05:00)

Hubble Space Telescope - Pass Details

Date: 28 September 2022
Orbit: 530 x 534 km, 28.5° (Epoch: 06 December)

Event Time Altitude Azimuth Distance (km) Brightness Sun altitude
Rises 20:16:09 0° 232° (SW) 2,649 4.9 -15.2°
Drops below altitude 10° 20:20:15 10° 192° (SSW) 1,788 3.4 -16.0°
Maximum altitude 20:21:00 10° 182° (S) 1,762 3.3 -16.1°
Enters shadow 20:22:07 - 166° (SSE) 1,820 3.2 -16.3°
